Weather History for Berlin, NH

Change the Weather History Date:

Saturday, December 12, 1998

  Actual Average Record
Temperature  
Mean Temperature 24 °F -  
Max Temperature 39 °F 30 °F 46 °F (2010)
Min Temperature 10 °F 12 °F -5 °F (1997)
Degree Days  
Heating Degree Days 40    
Moisture  
Dew Point 18 °F    
Average Humidity 81    
Maximum Humidity 92    
Minimum Humidity 53    
Precipitation  
Precipitation 0.02 in - - ()
Sea Level Pressure  
Sea Level Pressure 30.21 in    
Wind  
Wind Speed 1 mph (WSW)    
Max Wind Speed 7 mph    
Max Gust Speed -    
Visibility 10 miles    
Events      
Averages and records for this station are not official NWS values.
T = Trace of Precipitation, MM = Missing Value Source: NWS Daily Summary

Daily Weather History Graph

Daily Weather History Graph

Search for Another Location

Airport:

Trip Planner

Search our weather history database for the weather conditions in past years. The results will help you decide how hot, cold, wet, or windy it might be!

Date:

Astronomy

Dec. 12, 1998 Rise Set
Actual Time 7:12 AM EST 4:04 PM EST
Civil Twilight 6:38 AM EST 4:38 PM EST
Nautical Twilight 6:01 AM EST 5:14 PM EST
Astronomical Twilight 5:26 AM EST 5:50 PM EST
Moon 12:49 AM EST (12/12) 1:05 PM EST (12/12)
Length of Visible Light 9h 59m
Length of Day
8h 52m
Waning Crescent, 32% of the Moon is Illuminated
Dec 12
Waning Crescent
Dec 18
New
Dec 26
First Quarter
Jan 1
Full
Jan 9
Last Quarter

Hourly Weather History & Observations

Time (EST) Temp. Windchill Dew Point Humidity Pressure Visibility Wind Dir Wind Speed Gust Speed Precip Events Conditions
12:52 AM 25.0 °F - 18.0 °F 75% 30.34 in 10.0 mi Calm Calm - N/A   Clear
1:52 AM 18.0 °F - 15.1 °F 88% 30.36 in 10.0 mi Calm Calm - N/A   Clear
2:52 AM 17.1 °F 11.7 °F 15.1 °F 92% 30.37 in 10.0 mi Variable 3.5 mph - N/A   Clear
3:52 AM 16.0 °F - 14.0 °F 92% 30.33 in 10.0 mi Calm Calm - N/A   Clear
4:52 AM 14.0 °F - 12.0 °F 92% 30.34 in 10.0 mi Calm Calm - N/A   Clear
5:52 AM 12.0 °F - 10.0 °F 92% 30.32 in 9.0 mi Calm Calm - N/A   Clear
6:52 AM 10.9 °F - 9.0 °F 92% 30.33 in 10.0 mi Calm Calm - N/A   Clear
7:52 AM 14.0 °F - 12.0 °F 92% 30.31 in 10.0 mi Calm Calm - N/A   Clear
8:52 AM 16.0 °F - 14.0 °F 92% 30.30 in 10.0 mi Calm Calm - N/A   Clear
9:52 AM 21.9 °F - 18.0 °F 85% 30.30 in 10.0 mi Calm Calm - N/A   Clear
10:52 AM 28.0 °F - 19.0 °F 69% 30.24 in 9.0 mi Calm Calm - 0.01 in   Clear
11:52 AM 33.1 °F - 19.9 °F 59% 30.20 in 10.0 mi Calm Calm - 0.01 in   Clear
12:52 PM 37.9 °F - 21.9 °F 53% 30.15 in 10.0 mi Calm Calm - N/A   Clear
1:52 PM 39.0 °F 34.0 °F 24.1 °F 55% 30.14 in 10.0 mi WSW 6.9 mph - N/A   Scattered Clouds
2:52 PM 39.0 °F - 24.1 °F 55% 30.12 in 10.0 mi Calm Calm - N/A   Clear
3:52 PM 37.0 °F 34.5 °F 25.0 °F 62% 30.12 in 10.0 mi Variable 3.5 mph - N/A   Mostly Cloudy
4:52 PM 34.0 °F - 27.0 °F 75% 30.11 in 10.0 mi Calm Calm - N/A   Overcast
5:52 PM 28.0 °F - 24.1 °F 85% 30.12 in 10.0 mi Calm Calm - N/A   Clear
6:52 PM 27.0 °F - 23.0 °F 85% 30.12 in 10.0 mi Calm Calm - N/A   Clear
7:52 PM 25.0 °F - 23.0 °F 92% 30.12 in 10.0 mi Calm Calm - N/A   Clear
8:52 PM 23.0 °F - 19.9 °F 88% 30.12 in 10.0 mi Calm Calm - N/A   Clear
9:52 PM 19.9 °F - 18.0 °F 92% 30.11 in 10.0 mi Calm Calm - N/A   Clear
10:52 PM 19.0 °F - 16.0 °F 88% 30.10 in 10.0 mi Calm Calm - N/A   Clear
11:52 PM 19.9 °F - 18.0 °F 92% 30.07 in 8.0 mi Calm Calm - N/A   Clear